This is the latest recevied weather packets stored in our database for station/object N3FAA. If no packets are shown the sender has not sent any weather packets the latest 10 day(s).
| Time | Temp. | Humidity | Pressure | Rain* | Wind** | Luminosity | Snow |
|---|---|---|---|---|---|---|---|
| 1777774103 | 24.44° C | 35% | 1007.3 hPa | 0 mm | - | 30 W/m² | - |
| 1777773801 | 24.44° C | 35% | 1007.4 hPa | 0 mm | - | 35 W/m² | - |
| 1777773497 | 24.44° C | 35% | 1007.5 hPa | 0 mm | - | 40 W/m² | - |
| 1777773194 | 25° C | 33% | 1007.5 hPa | 0 mm | - | 46 W/m² | - |
| 1777772889 | 25° C | 33% | 1007.6 hPa | 0 mm | - | 61 W/m² | - |
| 1777772587 | 25.56° C | 32% | 1007.6 hPa | 0 mm | - | 65 W/m² | - |
| 1777772284 | 25.56° C | 31% | 1007.5 hPa | 0 mm | - | 94 W/m² | - |
| 1777771982 | 25.56° C | 30% | 1007.9 hPa | 0 mm | - | 107 W/m² | - |
| 1777771679 | 26.11° C | 30% | 1007.4 hPa | 0 mm | - | 124 W/m² | - |
| 1777771376 | 26.11° C | 30% | 1007.5 hPa | 0 mm | - | 138 W/m² | - |
| 1777771073 | 26.11° C | 31% | 1007.5 hPa | 0 mm | - | 156 W/m² | - |
| 1777770770 | 26.11° C | 30% | 1007.6 hPa | 0 mm | - | 163 W/m² | - |
| 1777770466 | 26.11° C | 30% | 1007.5 hPa | 0 mm | - | 195 W/m² | - |
| 1777770163 | 26.67° C | 30% | 1007.5 hPa | 0 mm | - | 141 W/m² | - |
| 1777769860 | 26.67° C | 29% | 1007.6 hPa | 0 mm | - | 199 W/m² | - |
| 1777769558 | 26.67° C | 30% | 1007.7 hPa | 0 mm | - | 206 W/m² | - |
| 1777769253 | 26.67° C | 29% | 1007.9 hPa | 0 mm | - | 187 W/m² | - |
| 1777768952 | 27.22° C | 28% | 1007.7 hPa | 0 mm | - | 223 W/m² | - |
| 1777768649 | 26.67° C | 30% | 1007.7 hPa | 0 mm | - | 242 W/m² | - |
| 1777768346 | 26.67° C | 28% | 1007.9 hPa | 0 mm | - | 253 W/m² | - |
| 1777768042 | 27.22° C | 28% | 1007.8 hPa | 0 mm | - | 245 W/m² | - |
| 1777767739 | 27.22° C | 28% | 1007.8 hPa | 0 mm | - | 307 W/m² | - |
| 1777767435 | 27.22° C | 27% | 1007.6 hPa | 0 mm | - | 292 W/m² | - |
| 1777767132 | 27.22° C | 28% | 1007.6 hPa | 0 mm | - | 358 W/m² | - |
| 1777766830 | 28.33° C | 27% | 1007.9 hPa | 0 mm | - | 307 W/m² | - |
* Rain latest hour (hover to see other rain measurements)
** Current wind speed in m/s (hover to see current wind gust speed)